FW3096 Weather Reports


Display with metric or nautical units.
time (UTC)temp
F
wind
direction
speed
MPH
gust
MPH
rain 1hr
in
rain 24hr
in
rain mn
in
humidity
%
barometer
mb
20260507004010 66 138 0.0 1.0 0.00 0.07 0.07 84 1009.8
20260507003508 67 142 0.0 2.0 0.00 0.07 0.07 84 1009.6
20260507003009 67 269 0.0 2.0 0.00 0.07 0.07 84 1009.3
20260507002509 67 278 1.0 2.0 0.00 0.07 0.07 83 1009.4
20260507002009 67 296 0.0 4.0 0.00 0.07 0.07 83 1009.3
20260507001508 67 296 2.0 5.0 0.00 0.07 0.07 83 1009.2
20260507000509 67 81 0.0 10.0 0.00 0.07 0.07 83 1009.1
20260507000010 67 218 2.0 10.0 0.00 0.07 0.07 83 1009.1
20260506235510 67 274 0.0 3.0 0.00 0.07 0.07 83 1009.0
20260506234010 67 215 0.0 7.0 0.00 0.07 0.07 83 1009.0
20260506233508 67 186 1.0 7.0 0.00 0.07 0.07 83 1009.2
20260506233009 67 259 0.0 4.0 0.00 0.07 0.07 83 1009.1
20260506232509 67 219 0.0 4.0 0.00 0.07 0.07 83 1009.1
20260506232009 67 199 1.0 3.0 0.00 0.07 0.07 83 1009.0
20260506231508 68 162 0.0 3.0 0.00 0.07 0.07 82 1008.9
20260506231011 68 276 0.0 3.0 0.00 0.07 0.07 82 1008.9
20260506230009 68 198 2.0 5.0 0.00 0.07 0.07 81 1009.0
20260506225009 68 222 2.0 8.0 0.00 0.07 0.07 81 1009.0
20260506224508 68 277 2.0 6.0 0.00 0.07 0.07 81 1008.8
20260506224010 68 90 0.0 5.0 0.00 0.07 0.07 82 1008.7
20260506223508 68 90 1.0 5.0 0.00 0.07 0.07 81 1008.9
20260506223009 68 175 1.0 4.0 0.00 0.07 0.07 81 1008.9
20260506222509 69 101 1.0 3.0 0.00 0.07 0.07 81 1008.9
20260506222009 69 193 0.0 3.0 0.00 0.07 0.07 81 1008.8
20260506221508 68 278 1.0 3.0 0.00 0.07 0.07 81 1008.8
20260506221009 68 207 2.0 6.0 0.00 0.07 0.07 81 1008.6
20260506220508 68 340 0.0 6.0 0.00 0.07 0.07 81 1008.7
20260506215508 68 164 0.0 4.0 0.00 0.07 0.07 81 1008.7
20260506215010 68 139 0.0 3.0 0.00 0.07 0.07 81 1008.8
20260506214508 68 11 1.0 5.0 0.00 0.07 0.07 81 1008.6
20260506214010 68 96 2.0 5.0 0.00 0.07 0.07 81 1008.6
20260506213508 68 209 1.0 6.0 0.00 0.07 0.07 81 1008.5
20260506213009 68 317 3.0 11.0 0.00 0.07 0.07 81 1008.6
20260506212510 68 264 4.0 11.0 0.00 0.07 0.07 81 1008.6
20260506212009 68 91 4.0 8.0 0.00 0.07 0.07 80 1008.5
20260506211508 69 175 4.0 7.0 0.00 0.07 0.07 80 1008.5
20260506210508 69 173 2.0 10.0 0.00 0.07 0.07 80 1008.5
20260506210010 69 157 4.0 10.0 0.00 0.07 0.07 82 1008.5
20260506205008 68 314 3.0 9.0 0.00 0.07 0.07 82 1008.5
20260506204508 68 167 3.0 13.0 0.00 0.07 0.07 83 1008.4
20260506204010 67 304 3.0 8.0 0.00 0.07 0.07 83 1008.4
20260506203508 67 253 5.0 8.0 0.00 0.07 0.07 83 1008.4
20260506202509 67 201 3.0 11.0 0.00 0.07 0.07 84 1008.3
20260506202008 67 183 1.0 11.0 0.00 0.07 0.07 83 1008.3
20260506201010 67 256 1.0 12.0 0.00 0.07 0.07 85 1008.3
20260506200508 66 226 3.0 12.0 0.00 0.07 0.07 85 1008.3
20260506200009 66 267 1.0 5.0 0.00 0.07 0.07 86 1008.4
20260506195510 66 198 0.0 6.0 0.00 0.07 0.07 86 1008.5
20260506195009 65 336 2.0 9.0 0.00 0.07 0.07 86 1008.6
20260506194507 65 250 3.0 9.0 0.00 0.07 0.07 86 1008.7
20260506194009 65 340 3.0 9.0 0.00 0.07 0.07 85 1008.7
20260506193009 65 126 1.0 10.0 0.00 0.07 0.07 86 1008.8
20260506192510 65 149 1.0 7.0 0.00 0.07 0.07 86 1008.8
20260506192009 65 171 2.0 10.0 0.00 0.07 0.07 87 1008.9
20260506191507 64 323 4.0 10.0 0.00 0.07 0.07 87 1009.0
20260506191009 64 232 1.0 10.0 0.00 0.07 0.07 87 1009.0
20260506190508 64 191 3.0 10.0 0.00 0.07 0.07 87 1009.1
20260506190009 64 196 3.0 8.0 0.00 0.07 0.07 87 1009.2
20260506185508 64 225 3.0 10.0 0.00 0.07 0.07 87 1009.2
20260506185010 64 360 2.0 13.0 0.00 0.07 0.07 87 1009.0
20260506184008 64 235 3.0 7.0 0.00 0.07 0.07 88 1009.2
20260506182510 63 155 2.0 10.0 0.00 0.07 0.07 89 1009.4
20260506182010 63 355 4.0 10.0 0.00 0.07 0.07 90 1009.5
20260506181509 63 333 2.0 5.0 0.00 0.07 0.07 90 1009.6
20260506180509 63 273 2.0 9.0 0.00 0.07 0.07 90 1009.4
20260506180011 63 197 1.0 7.0 0.00 0.07 0.07 91 1009.6
20260506175509 62 293 1.0 6.0 0.00 0.07 0.07 91 1009.7
20260506175011 62 288 2.0 7.0 0.00 0.07 0.07 91 1009.7
20260506174508 62 204 4.0 7.0 0.00 0.07 0.07 91 1009.7
20260506173510 62 90 1.0 12.0 0.00 0.07 0.07 91 1009.8
20260506173009 62 175 2.0 12.0 0.00 0.07 0.07 91 1009.7
20260506172008 62 131 1.0 4.0 0.00 0.07 0.07 92 1009.8
20260506171508 62 136 1.0 11.0 0.01 0.07 0.07 92 1009.7
20260506170509 62 233 3.0 9.0 0.02 0.07 0.07 92 1010.0
20260506170010 62 48 4.0 9.0 0.03 0.07 0.07 92 1010.0
20260506165010 62 225 2.0 10.0 0.04 0.07 0.07 93 1010.0
20260506164009 62 271 1.0 8.0 0.05 0.07 0.07 93 1010.0
20260506163010 62 173 0.0 5.0 0.05 0.07 0.07 92 1010.2
20260506162507 62 148 1.0 5.0 0.05 0.07 0.07 92 1010.1
20260506162010 62 117 2.0 5.0 0.06 0.07 0.07 93 1010.2
20260506161508 62 157 1.0 5.0 0.05 0.06 0.06 92 1010.4
20260506161008 62 189 2.0 6.0 0.05 0.05 0.05 92 1010.5
20260506160509 62 160 2.0 9.0 0.05 0.05 0.05 91 1010.7
20260506160011 62 146 3.0 9.0 0.04 0.04 0.04 90 1010.9
20260506155508 62 317 1.0 6.0 0.04 0.04 0.04 89 1011.2
20260506154508 63 46 4.0 10.0 0.03 0.03 0.03 89 1011.3
20260506154009 63 223 1.0 4.0 0.02 0.02 0.02 89 1011.2
20260506153509 63 34 0.0 7.0 0.02 0.02 0.02 87 1011.3
20260506153009 63 215 0.0 7.0 0.02 0.02 0.02 87 1011.3
20260506152508 63 238 3.0 8.0 0.02 0.02 0.02 86 1011.3
20260506152010 63 309 2.0 9.0 0.01 0.01 0.01 85 1011.1
20260506151508 64 233 1.0 9.0 0.01 0.01 0.01 83 1011.0
20260506151008 64 241 4.0 9.0 0.00 0.00 0.00 83 1011.0
20260506150009 64 171 1.0 7.0 0.00 0.00 0.00 81 1010.9
20260506145508 65 202 3.0 8.0 0.00 0.00 0.00 80 1011.0
20260506145010 65 283 1.0 8.0 0.00 0.00 0.00 80 1011.1
20260506144009 66 187 4.0 11.0 0.00 0.00 0.00 79 1011.0
20260506143508 66 203 3.0 9.0 0.00 0.00 0.00 78 1010.9
20260506142508 66 128 2.0 8.0 0.00 0.00 0.00 77 1011.2
20260506142008 67 5 4.0 8.0 0.00 0.00 0.00 75 1011.1
20260506141509 67 218 4.0 7.0 0.00 0.00 0.00 74 1011.2
20260506141008 67 315 2.0 10.0 0.00 0.00 0.00 73 1011.1
20260506140508 67 70 3.0 12.0 0.00 0.00 0.00 73 1011.1
20260506140008 68 265 2.0 12.0 0.00 0.00 0.00 72 1011.0
20260506135507 68 278 5.0 10.0 0.00 0.00 0.00 72 1011.0
20260506135009 69 260 4.0 9.0 0.00 0.00 0.00 72 1010.9
20260506133508 67 181 4.0 10.0 0.00 0.00 0.00 75 1010.9
20260506133008 66 271 2.0 7.0 0.00 0.00 0.00 76 1011.0
20260506132506 66 130 3.0 9.0 0.00 0.00 0.00 75 1011.1
20260506132009 66 336 1.0 9.0 0.00 0.00 0.00 76 1011.1
20260506131507 66 186 3.0 12.0 0.00 0.00 0.00 76 1011.0
20260506131007 66 167 4.0 12.0 0.00 0.00 0.00 76 1011.1
20260506125010 66 227 2.0 13.0 0.00 0.00 0.00 77 1011.4
20260506124507 66 355 4.0 13.0 0.00 0.00 0.00 77 1011.4
20260506124009 66 142 4.0 8.0 0.00 0.00 0.00 77 1011.3
20260506122011 66 13 2.0 12.0 0.00 0.00 0.00 79 1011.3
20260506121008 66 168 4.0 10.0 0.00 0.00 0.00 79 1011.1
20260506120508 66 169 3.0 6.0 0.00 0.00 0.00 79 1011.1
20260506120010 65 85 3.0 8.0 0.00 0.00 0.00 81 1011.0
20260506115507 64 192 3.0 8.0 0.00 0.00 0.00 82 1011.1
20260506114508 64 81 2.0 6.0 0.00 0.00 0.00 82 1011.0
20260506114008 64 150 2.0 11.0 0.00 0.00 0.00 82 1011.0
20260506113509 64 157 4.0 11.0 0.00 0.00 0.00 82 1010.9
20260506113009 63 215 4.0 9.0 0.00 0.00 0.00 83 1011.0
20260506112507 63 165 4.0 8.0 0.00 0.00 0.00 83 1011.0
20260506112010 63 76 3.0 8.0 0.00 0.00 0.00 83 1011.1
20260506111508 63 166 2.0 9.0 0.00 0.00 0.00 83 1010.9
20260506111008 63 78 4.0 10.0 0.00 0.00 0.00 83 1011.1
20260506110510 63 136 4.0 10.0 0.00 0.00 0.00 83 1011.0
20260506110011 63 235 3.0 8.0 0.00 0.00 0.00 84 1010.9
20260506105508 63 145 2.0 5.0 0.00 0.00 0.00 84 1010.9
20260506105010 63 162 2.0 6.0 0.00 0.00 0.00 84 1011.1
20260506104507 63 181 2.0 7.0 0.00 0.00 0.00 84 1011.0
20260506104009 63 108 1.0 7.0 0.00 0.00 0.00 84 1010.9
20260506103507 63 92 1.0 7.0 0.00 0.00 0.00 84 1011.0
20260506103009 62 157 2.0 8.0 0.00 0.00 0.00 85 1011.0
20260506101010 62 171 1.0 7.0 0.00 0.00 0.00 84 1010.9
20260506100508 62 180 2.0 9.0 0.00 0.00 0.00 84 1010.9
20260506100009 63 213 3.0 9.0 0.00 0.00 0.00 84 1010.9
20260506095508 63 105 2.0 7.0 0.00 0.00 0.00 84 1010.9
20260506095008 63 158 0.0 4.0 0.00 0.00 0.00 84 1011.0
20260506094507 63 188 1.0 6.0 0.00 0.00 0.00 83 1011.1
20260506094009 63 75 0.0 4.0 0.00 0.00 0.00 83 1011.1
20260506093007 63 94 1.0 6.0 0.00 0.00 0.00 83 1011.0
20260506092509 63 301 1.0 4.0 0.00 0.00 0.00 83 1011.0
20260506092008 63 182 2.0 8.0 0.00 0.00 0.00 83 1010.9
20260506091506 63 200 4.0 9.0 0.00 0.00 0.00 83 1010.9
20260506091009 64 140 0.0 4.0 0.00 0.00 0.00 82 1011.0
20260506090506 64 213 1.0 5.0 0.00 0.00 0.00 82 1011.0
20260506090008 64 171 3.0 5.0 0.00 0.00 0.00 82 1011.0
20260506085508 64 198 2.0 5.0 0.00 0.00 0.00 82 1011.1
20260506085007 64 210 1.0 5.0 0.00 0.00 0.00 82 1011.1
20260506084507 64 87 1.0 6.0 0.00 0.00 0.00 82 1011.2
20260506084009 64 86 1.0 6.0 0.00 0.00 0.00 82 1011.0
20260506083508 64 181 2.0 6.0 0.00 0.00 0.00 82 1011.1
20260506082507 64 161 1.0 7.0 0.00 0.00 0.00 82 1011.1
20260506082010 64 167 1.0 5.0 0.00 0.00 0.00 81 1011.1
20260506081508 64 167 2.0 5.0 0.00 0.00 0.00 82 1011.3
20260506081009 64 165 3.0 5.0 0.00 0.00 0.00 82 1011.2
20260506080509 64 157 1.0 6.0 0.00 0.00 0.00 82 1011.2
20260506073508 64 144 1.0 3.0 0.00 0.00 0.00 81 1011.2
20260506073008 64 162 0.0 3.0 0.00 0.00 0.00 81 1011.3
20260506072506 64 207 1.0 3.0 0.00 0.00 0.00 81 1011.3
20260506072009 64 96 0.0 3.0 0.00 0.00 0.00 81 1011.3
20260506071008 64 157 0.0 3.0 0.00 0.00 0.00 81 1011.3
20260506070507 64 196 1.0 4.0 0.00 0.00 0.00 81 1011.3
20260506062009 65 166 0.0 5.0 0.00 0.00 0.00 78 1011.7
20260506061507 65 139 1.0 4.0 0.00 0.00 0.00 78 1011.5
20260506061008 65 138 0.0 4.0 0.00 0.00 0.00 78 1011.5
20260506060508 66 159 0.0 4.0 0.00 0.00 0.00 78 1011.5
20260506051009 66 190 1.0 5.0 0.00 0.00 0.00 76 1011.9
20260506050507 66 145 2.0 5.0 0.00 0.00 0.00 76 1012.0
20260506045009 66 118 2.0 6.0 0.00 0.00 0.00 76 1012.2
20260506044508 66 173 2.0 9.0 0.00 0.00 0.00 75 1012.2
20260506044010 66 166 4.0 9.0 0.00 0.00 0.00 75 1012.2
20260506043508 66 167 2.0 6.0 0.00 0.00 0.00 75 1012.2
20260506043009 66 103 0.0 7.0 0.00 0.00 0.00 74 1012.2
20260506042510 66 93 0.0 7.0 0.00 0.00 0.00 73 1012.2
20260506042009 66 148 0.0 4.0 0.00 0.00 0.00 73 1012.2
20260506041509 66 198 0.0 3.0 0.00 0.00 0.00 73 1012.2
20260506041011 67 178 0.0 5.0 0.00 0.00 0.00 72 1012.2
20260506040508 67 161 1.0 5.0 0.00 0.00 0.00 72 1012.1
20260506040016 67 122 1.0 4.0 0.00 0.00 0.00 71 1012.1
20260506035510 67 150 0.0 7.0 0.00 0.00 0.00 71 1012.1
20260506035010 67 170 2.0 7.0 0.00 0.00 0.00 71 1012.2
20260506034509 67 234 3.0 6.0 0.00 0.00 0.00 71 1012.2
20260506034011 67 165 3.0 9.0 0.00 0.00 0.00 71 1012.1
20260506033509 67 138 4.0 9.0 0.00 0.00 0.00 70 1012.1
20260506033009 67 121 2.0 5.0 0.00 0.00 0.00 70 1012.0
20260506032510 67 145 2.0 5.0 0.00 0.00 0.00 69 1011.9
20260506032009 68 163 2.0 6.0 0.00 0.00 0.00 69 1011.9
20260506031510 68 161 2.0 7.0 0.00 0.00 0.00 69 1011.9
20260506030509 68 57 3.0 6.0 0.00 0.00 0.00 68 1012.1
20260506025009 68 213 2.0 7.0 0.00 0.00 0.00 67 1012.0
20260506024511 69 167 2.0 5.0 0.00 0.00 0.00 66 1012.1
20260506024009 69 155 0.0 5.0 0.00 0.00 0.00 65 1012.2
20260506023508 69 175 2.0 5.0 0.00 0.00 0.00 65 1012.2
20260506023011 70 172 0.0 6.0 0.00 0.00 0.00 64 1012.2
20260506022508 70 146 2.0 6.0 0.00 0.00 0.00 63 1012.1
20260506021510 70 151 2.0 7.0 0.00 0.00 0.00 61 1012.0
20260506021009 71 149 0.0 5.0 0.00 0.00 0.00 61 1012.0
20260506020509 71 73 2.0 8.0 0.00 0.00 0.00 60 1011.9
20260506020013 71 154 2.0 7.0 0.00 0.00 0.00 60 1011.9
20260506015509 71 148 3.0 9.0 0.00 0.00 0.00 59 1011.8
20260506015009 71 153 3.0 9.0 0.00 0.00 0.00 59 1011.8
20260506014510 71 171 3.0 8.0 0.00 0.00 0.00 58 1011.9
20260506014009 72 139 2.0 7.0 0.00 0.00 0.00 58 1011.7
20260506013508 72 150 3.0 8.0 0.00 0.00 0.00 58 1011.6
20260506013012 72 162 4.0 8.0 0.00 0.00 0.00 57 1011.6
20260506012010 72 194 3.0 7.0 0.00 0.00 0.00 57 1011.5
20260506011509 72 170 3.0 7.0 0.00 0.00 0.00 56 1011.5
20260506011009 72 150 2.0 5.0 0.00 0.00 0.00 56 1011.5
20260506010508 72 191 2.0 6.0 0.00 0.00 0.00 56 1011.4
20260506010011 72 27 2.0 5.0 0.00 0.00 0.00 56 1011.4
20260506005509 72 230 2.0 5.0 0.00 0.00 0.00 55 1011.3
20260506005009 72 134 1.0 6.0 0.00 0.00 0.00 55 1011.2
20260506004508 72 143 1.0 6.0 0.00 0.00 0.00 54 1011.1